Nome, AK

5:09 AM AKST on February 21, 2018 (GMT -0900)
Nome

Weather History for PAOM - September, 2011

Change the Weather History Date:

Thursday, September 1, 2011

  Actual Average Record
Temperature  
Mean Temperature 48 °F 48 °F  
Max Temperature 53 °F 54 °F 66 °F (2008)
Min Temperature 43 °F 42 °F 26 °F (1983)
Degree Days  
Heating Degree Days 17 17  
Month to date heating degree days 17 17  
Since 1 July heating degree days 1033 877  
Cooling Degree Days 0 0  
Month to date cooling degree days 0 0  
Year to date cooling degree days 0 3  
Moisture  
Dew Point 46 °F    
Average Humidity 0    
Maximum Humidity 0    
Minimum Humidity 0    
Precipitation  
Precipitation 0.00 in 0.09 in 1.39 in (1942)
Month to date precipitation 0.00 0.09  
Year to date precipitation 13.34 10.54  
Snow  
Snow 0.00 in 0.00 in T in (1944)
Month to date snowfall 0.0 0.0  
Since 1 July snowfall 0.0 0.0  
Since 1 September snowfall 0.0 0.0  
Snow Depth 0.00 in    
Sea Level Pressure  
Sea Level Pressure 29.88 in    
Wind  
Wind Speed 5 mph (WSW)    
Max Wind Speed 260 mph    
Max Gust Speed 270 mph    
Visibility 10 miles    
Events      
T = Trace of Precipitation, MM = Missing Value Source: NWS Daily Summary

Daily Weather History Graph

Daily Weather History Graph

Search for Another Location

Airport or City:

Trip Planner

Search our weather history database for the weather conditions in past years. The results will help you decide how hot, cold, wet, or windy it might be!

Date:

Astronomy

Sep. 01, 2011 Rise Set
Actual Time 7:42 AM AKDT 10:18 PM AKDT
Civil Twilight 6:48 AM AKDT 11:12 PM AKDT
Nautical Twilight 5:31 AM AKDT 12:27 AM AKDT
Astronomical Twilight 3:34 AM AKDT 2:29 AM AKDT
Moon 2:40 PM AKDT (9/1) 9:49 PM AKDT (9/1)
Length of Visible Light 16h 24m
Length of Day
14h 35m
Waxing Crescent, 19% of the Moon is Illuminated
Sep 1
Waxing Crescent
Sep 4
First Quarter
Sep 12
Full
Sep 20
Last Quarter
Sep 27
New

Hourly Weather History & Observations

Time (AKDT) Temp. Windchill Dew Point Humidity Pressure Visibility Wind Dir Wind Speed Gust Speed Precip Events Conditions
12:53 AM 48.0 °F - 46.9 °F 96% 29.82 in 10.0 mi WNW 6.9 mph - N/A   Overcast
1:53 AM 46.9 °F - 46.0 °F 97% 29.83 in 10.0 mi WNW 6.9 mph - N/A   Overcast
2:53 AM 46.9 °F - 46.0 °F 97% 29.83 in 10.0 mi West 4.6 mph - N/A   Overcast
3:13 AM 48.2 °F - 46.4 °F 93% 29.84 in 10.0 mi WSW 4.6 mph - N/A   Overcast
3:25 AM 48.2 °F - 46.4 °F 93% 29.84 in 10.0 mi WSW 4.6 mph - N/A   Overcast
3:43 AM 48.2 °F - 46.4 °F 93% 29.84 in 10.0 mi WSW 8.1 mph - N/A   Overcast
3:53 AM 48.0 °F - 46.0 °F 93% 29.84 in 10.0 mi WSW 5.8 mph - N/A   Overcast
4:53 AM 48.0 °F - 46.0 °F 93% 29.86 in 10.0 mi SW 9.2 mph - N/A   Overcast
5:06 AM 48.2 °F - 46.4 °F 93% 29.86 in 10.0 mi WSW 8.1 mph - N/A   Overcast
5:20 AM 48.2 °F - 46.4 °F 93% 29.85 in 10.0 mi WNW 6.9 mph - N/A   Overcast
5:53 AM 46.0 °F 44.8 °F 46.0 °F 100% 29.86 in 10.0 mi NW 3.5 mph - N/A   Overcast
6:53 AM 46.9 °F - 45.0 °F 93% 29.86 in 10.0 mi Calm Calm - N/A   Overcast
7:21 AM 44.6 °F 43.1 °F 44.6 °F 100% 29.86 in 10.0 mi NNE 3.5 mph - N/A   Overcast
7:53 AM 44.1 °F - 44.1 °F 100% 29.86 in 10.0 mi Calm Calm - N/A   Overcast
8:53 AM 46.0 °F - 45.0 °F 96% 29.87 in 10.0 mi Calm Calm - N/A   Mostly Cloudy
9:53 AM 46.0 °F - 45.0 °F 96% 29.88 in 10.0 mi Calm Calm - N/A   Overcast
10:28 AM 46.4 °F 44.3 °F 46.4 °F 100% 29.89 in 10.0 mi SW 4.6 mph - N/A   Overcast
10:53 AM 46.9 °F - 46.0 °F 97% 29.90 in 10.0 mi SW 3.5 mph - N/A   Overcast
11:33 AM 48.2 °F - 46.4 °F 93% 29.90 in 10.0 mi Calm Calm - N/A   Overcast
11:53 AM 48.0 °F - 46.0 °F 93% 29.90 in 10.0 mi Calm Calm - N/A   Overcast
12:38 PM 48.2 °F - 46.4 °F 93% 29.91 in 10.0 mi SSW 5.8 mph - N/A   Overcast
12:53 PM 48.0 °F - 46.9 °F 96% 29.91 in 10.0 mi SSW 5.8 mph - N/A   Overcast
1:53 PM 48.9 °F - 46.9 °F 93% 29.91 in 10.0 mi SW 5.8 mph - N/A   Overcast
2:20 PM 48.2 °F - 46.4 °F 93% 29.91 in 10.0 mi SW 4.6 mph - N/A   Mostly Cloudy
2:53 PM 50.0 °F - 45.0 °F 83% 29.92 in 10.0 mi Calm Calm - N/A   Mostly Cloudy
3:53 PM 50.0 °F - 44.1 °F 80% 29.92 in 10.0 mi SW 8.1 mph - N/A   Overcast
4:53 PM 50.0 °F - 45.0 °F 83% 29.92 in 10.0 mi SW 6.9 mph - N/A   Mostly Cloudy
5:53 PM 51.1 °F - 46.0 °F 83% 29.93 in 10.0 mi West 9.2 mph - N/A   Mostly Cloudy
6:53 PM 51.1 °F - 46.9 °F 86% 29.93 in 10.0 mi West 10.4 mph - N/A   Scattered Clouds
7:53 PM 52.0 °F - 48.0 °F 86% 29.92 in 10.0 mi West 11.5 mph - N/A   Scattered Clouds
8:53 PM 52.0 °F - 48.0 °F 86% 29.92 in 10.0 mi West 9.2 mph - N/A   Scattered Clouds
9:53 PM 48.9 °F - 46.9 °F 93% 29.92 in 10.0 mi WNW 5.8 mph - N/A   Scattered Clouds
10:53 PM 46.0 °F 43.9 °F 46.0 °F 100% 29.92 in 10.0 mi WNW 4.6 mph - N/A   Mostly Cloudy
11:53 PM 45.0 °F - 44.1 °F 97% 29.93 in 10.0 mi Calm Calm - N/A   Mostly Cloudy